TimeCST,TemperatureF,Dew PointF,Humidity,Sea Level PressureIn,VisibilityMPH,Wind Direction,Wind SpeedMPH,Gust SpeedMPH,PrecipitationIn,Events,Conditions,WindDirDegrees,DateUTC
12:12 AM,17.6,14.0,86,29.94,8.0,Calm,Calm,-,N/A,,Partly Cloudy,0,2013-02-24 06:12:00
12:33 AM,17.6,14.0,86,29.95,7.0,Calm,Calm,-,N/A,,Mostly Cloudy,0,2013-02-24 06:33:00
12:53 AM,15.1,12.0,88,29.99,6.0,Calm,Calm,-,N/A,,Scattered Clouds,0,2013-02-24 06:53:00
1:53 AM,15.1,12.0,88,30.01,5.0,WSW,3.5,-,N/A,,Clear,240,2013-02-24 07:53:00
2:12 AM,12.2,8.6,85,29.97,5.0,Calm,Calm,-,N/A,,Mostly Cloudy,0,2013-02-24 08:12:00
2:53 AM,15.1,12.0,88,30.02,5.0,WSW,3.5,-,N/A,,Overcast,240,2013-02-24 08:53:00
3:53 AM,16.0,12.9,88,30.02,7.0,Calm,Calm,-,N/A,,Overcast,0,2013-02-24 09:53:00
4:20 AM,14.0,10.4,86,29.98,5.0,Calm,Calm,-,N/A,,Scattered Clouds,0,2013-02-24 10:20:00
4:45 AM,12.2,8.6,85,29.98,1.8,Calm,Calm,-,N/A,,Clear,0,2013-02-24 10:45:00
4:53 AM,10.9,9.0,92,30.04,2.0,Calm,Calm,-,N/A,,Clear,0,2013-02-24 10:53:00
5:01 AM,12.2,8.6,85,29.99,5.0,Calm,Calm,-,N/A,,Clear,0,2013-02-24 11:01:00
5:53 AM,9.0,6.1,88,30.05,5.0,Calm,Calm,-,N/A,,Clear,0,2013-02-24 11:53:00
6:53 AM,8.1,6.1,92,30.06,4.0,Calm,Calm,-,N/A,,Clear,0,2013-02-24 12:53:00
7:53 AM,10.0,8.1,92,30.08,4.0,Calm,Calm,-,N/A,,Clear,0,2013-02-24 13:53:00
8:53 AM,15.1,14.0,95,30.09,9.0,Calm,Calm,-,N/A,,Clear,0,2013-02-24 14:53:00
9:53 AM,19.9,17.1,89,30.09,7.0,Calm,Calm,-,N/A,,Clear,0,2013-02-24 15:53:00
10:53 AM,25.0,18.0,75,30.10,7.0,Calm,Calm,-,N/A,,Clear,0,2013-02-24 16:53:00
11:53 AM,28.9,19.0,67,30.11,9.0,Calm,Calm,-,N/A,,Clear,0,2013-02-24 17:53:00
12:53 PM,30.9,19.0,61,30.11,10.0,SE,4.6,-,N/A,,Clear,130,2013-02-24 18:53:00
1:53 PM,32.0,19.0,59,30.09,10.0,Calm,Calm,-,N/A,,Clear,0,2013-02-24 19:53:00
2:53 PM,33.1,19.0,56,30.08,10.0,SSE,3.5,-,N/A,,Clear,160,2013-02-24 20:53:00
3:53 PM,34.0,19.0,54,30.08,10.0,East,3.5,-,N/A,,Clear,100,2013-02-24 21:53:00
4:53 PM,32.0,19.9,61,30.07,10.0,SSE,6.9,-,N/A,,Clear,160,2013-02-24 22:53:00
5:53 PM,28.9,18.0,64,30.09,10.0,SSE,5.8,-,N/A,,Clear,150,2013-02-24 23:53:00
6:53 PM,28.0,18.0,66,30.11,10.0,SSE,3.5,-,N/A,,Partly Cloudy,150,2013-02-25 00:53:00
7:53 PM,26.1,17.1,69,30.12,10.0,South,3.5,-,N/A,,Clear,170,2013-02-25 01:53:00
8:53 PM,21.0,15.1,78,30.12,10.0,Calm,Calm,-,N/A,,Clear,0,2013-02-25 02:53:00
9:53 PM,19.0,14.0,81,30.12,8.0,Calm,Calm,-,N/A,,Clear,0,2013-02-25 03:53:00
10:53 PM,17.1,12.0,81,30.13,6.0,Calm,Calm,-,N/A,,Haze,0,2013-02-25 04:53:00
11:33 PM,17.6,14.0,86,30.09,6.0,Calm,Calm,-,N/A,,Mostly Cloudy,0,2013-02-25 05:33:00
11:53 PM,19.0,16.0,88,30.13,7.0,Calm,Calm,-,N/A,,Overcast,0,2013-02-25 05:53:00